DK8PN Weather Reports


time (UTC)temp
C
wind
direction
speed
KPH
gust
KPH
rain 1hr
cm
rain 24hr
cm
rain mn
cm
humidity
%
barometer
mb
20200217023200 16 224 0.0 8.0 0.00 0.00 0.00 51 1015.6
20200217021654 16 188 1.6 14.5 0.00 0.00 0.00 50 1015.4
20200217020048 16 202 0.0 17.7 0.00 0.00 0.00 49 1015.4
20200217014624 16 225 0.0 14.5 0.00 0.00 0.00 49 1015.2
20200217013104 16 200 0.0 24.1 0.00 0.00 0.00 48 1015.1
20200217011541 15 219 1.6 17.7 0.00 0.00 0.00 48 1014.8
20200217010044 15 248 1.6 16.1 0.00 0.00 0.00 47 1014.6
20200217004531 16 190 1.6 12.9 0.00 0.00 0.00 46 1014.4
20200217003036 15 203 1.6 14.5 0.00 0.00 0.00 46 1014.2
20200217001553 15 176 1.6 12.9 0.00 0.00 0.00 46 1014.2
20200217000027 15 213 0.0 12.9 0.00 0.00 0.00 45 1014.2
20200216234518 15 194 1.6 11.3 0.00 0.00 0.00 45 1014.1
20200216233032 15 148 3.2 12.9 0.00 0.00 0.00 44 1014.2
20200216231601 15 185 0.0 9.7 0.00 0.00 0.00 44 1014.2
20200216230044 15 169 1.6 14.5 0.00 0.00 0.00 43 1014.0
20200216224517 15 220 3.2 12.9 0.00 0.00 0.00 43 1013.9
20200216223016 15 178 1.6 11.3 0.00 0.00 0.00 43 1014.0
20200216221510 16 204 4.8 14.5 0.00 0.00 0.00 42 1014.0
20200216220020 16 183 4.8 14.5 0.00 0.00 0.00 42 1014.0
20200216214520 16 177 1.6 12.9 0.00 0.00 0.00 41 1014.0
20200216213004 16 203 3.2 17.7 0.00 0.00 0.00 40 1014.0
20200216211507 16 257 4.8 32.2 0.00 0.00 0.00 40 1014.0
20200216210001 16 209 3.2 24.1 0.00 0.00 0.00 40 1013.9
20200216204502 16 248 1.6 19.3 0.00 0.00 0.00 39 1014.0
20200216203222 16 263 3.2 24.1 0.00 0.00 0.00 39 1013.9
20200216201707 16 173 3.2 14.5 0.00 0.00 0.00 39 1013.9
20200216200210 15 202 0.0 8.0 0.00 0.00 0.00 40 1013.9
20200216194704 15 196 0.0 1.6 0.00 0.00 0.00 40 1013.7
20200216193236 15 213 0.0 4.8 0.00 0.00 0.00 39 1014.0
20200216191743 16 244 0.0 8.0 0.00 0.00 0.00 38 1014.0
20200216190127 16 222 0.0 0.0 0.00 0.00 0.00 39 1014.0
20200216184638 16 209 0.0 8.0 0.00 0.00 0.00 39 1013.6
20200216183209 15 182 0.0 1.6 0.00 0.00 0.00 40 1013.7
20200216181753 16 196 0.0 1.6 0.00 0.00 0.00 40 1013.7
20200216180219 16 178 0.0 4.8 0.00 0.00 0.00 38 1013.6
20200216174612 16 234 0.0 19.3 0.00 0.00 0.00 38 1013.7
20200216173142 17 173 1.6 12.9 0.00 0.00 0.00 38 1013.5
20200216171754 17 159 1.6 9.7 0.00 0.00 0.00 38 1013.7
20200216170154 17 184 0.0 19.3 0.00 0.00 0.00 38 1013.9
20200216164705 17 211 0.0 12.9 0.00 0.00 0.00 37 1013.9
20200216163138 18 213 1.6 29.0 0.00 0.00 0.00 35 1013.8
20200216161640 18 213 3.2 33.8 0.00 0.00 0.00 35 1013.9
20200216160105 18 179 3.2 14.5 0.00 0.00 0.00 35 1014.0
20200216154632 18 165 3.2 16.1 0.00 0.00 0.00 35 1014.0
20200216153110 18 199 1.6 12.9 0.00 0.00 0.00 34 1014.1
20200216151704 18 172 1.6 17.7 0.00 0.00 0.00 34 1014.3
20200216150121 18 200 1.6 12.9 0.00 0.00 0.00 33 1014.5
20200216144651 18 218 1.6 8.0 0.00 0.00 0.00 33 1014.6
20200216143059 18 186 0.0 12.9 0.00 0.00 0.00 34 1014.7
20200216141619 18 218 1.6 12.9 0.00 0.00 0.00 34 1014.8
20200216140100 18 190 3.2 16.1 0.00 0.00 0.00 34 1015.0
20200216134628 18 209 3.2 19.3 0.00 0.00 0.00 32 1015.1
20200216133152 18 217 3.2 17.7 0.00 0.00 0.00 33 1015.4
20200216131533 17 178 8.0 17.7 0.00 0.00 0.00 33 1015.5
20200216130034 17 161 4.8 17.7 0.00 0.00 0.00 36 1015.5
20200216124542 16 192 4.8 16.1 0.00 0.00 0.00 36 1015.7
20200216123039 16 167 3.2 12.9 0.00 0.00 0.00 38 1016.0
20200216121534 15 194 1.6 9.7 0.00 0.00 0.00 40 1016.0
20200216120042 15 170 0.0 8.0 0.00 0.00 0.00 40 1016.5
20200216114509 15 205 0.0 11.3 0.00 0.00 0.00 38 1017.0
20200216113009 15 186 1.6 17.7 0.00 0.00 0.00 38 1017.0
20200216111507 15 192 3.2 12.9 0.00 0.00 0.00 38 1017.1
20200216110002 15 163 4.8 14.5 0.00 0.00 0.00 38 1017.3
20200216104753 15 205 8.0 22.5 0.00 0.00 0.00 38 1017.4
20200216103301 14 253 3.2 19.3 0.00 0.00 0.00 41 1017.9
20200216101612 14 188 4.8 17.7 0.00 0.00 0.00 42 1018.2
20200216100107 13 209 3.2 9.7 0.00 0.00 0.00 44 1018.5
20200216094556 13 165 0.0 9.7 0.00 0.00 0.00 48 1018.5
20200216093131 12 148 0.0 4.8 0.00 0.00 0.00 49 1018.6
20200216091623 12 208 0.0 9.7 0.00 0.00 0.00 47 1018.7
20200216090154 12 146 0.0 11.3 0.00 0.00 0.00 48 1018.8
20200216084649 12 171 0.0 8.0 0.00 0.00 0.00 48 1019.0
20200216083049 12 200 0.0 14.5 0.00 0.00 0.00 48 1019.0
20200216081605 12 188 0.0 11.3 0.00 0.00 0.00 48 1019.2
20200216080100 12 199 3.2 14.5 0.00 0.00 0.00 48 1019.2
20200216074541 12 199 1.6 20.9 0.00 0.00 0.00 49 1019.3
20200216073029 11 165 0.0 8.0 0.00 0.00 0.00 52 1019.3
20200216071536 11 180 1.6 9.7 0.00 0.00 0.00 51 1019.3
20200216070108 11 186 0.0 12.9 0.00 0.00 0.00 50 1019.3
20200216064518 11 192 1.6 11.3 0.00 0.00 0.00 51 1019.3
20200216063041 11 157 1.6 9.7 0.00 0.00 0.00 51 1019.3
20200216061538 11 227 0.0 8.0 0.00 0.00 0.00 53 1019.3
20200216060008 10 184 0.0 8.0 0.00 0.00 0.00 59 1019.3
20200216054505 6 134 0.0 0.0 0.00 0.00 0.00 72 1019.4
20200216053009 6 134 0.0 0.0 0.00 0.00 0.00 72 1019.5
20200216051506 7 134 0.0 0.0 0.00 0.00 0.00 68 1019.6
20200216050005 7 134 0.0 0.0 0.00 0.00 0.00 66 1019.6
20200216044502 7 134 0.0 0.0 0.00 0.00 0.00 67 1019.6
20200216041653 7 134 0.0 0.0 0.00 0.00 0.00 67 1019.5
20200216040128 7 134 0.0 0.0 0.00 0.00 0.00 67 1019.3
20200216034624 8 134 0.0 0.0 0.00 0.00 0.00 64 1019.4
20200216033101 8 134 0.0 0.0 0.00 0.00 0.00 66 1019.8
20200216031633 7 134 0.0 0.0 0.00 0.00 0.00 71 1019.7
20200216030116 7 134 0.0 0.0 0.00 0.00 0.00 70 1020.1
20200216024656 7 134 0.0 0.0 0.00 0.00 0.00 71 1020.4